Home > Weather > Bangor > Past weeks

Flag for United Kingdom Past Weather in Bangor, Wales, United Kingdom — Yesterday and Last 2 Weeks

Now
61 °F

Cool.


Feels Like: 61 °F
Forecast: 54 / 65 °F
Wind: 12 mph from Northwest

Location: Capel Curig

Current Time: Jul 27, 2016 at 4:23:40 PM

Latest Report: Jul 27, 2016 at 3:00 PM


Visibility: 17 mi

Pressure: 30.03 "Hg

Humidity: 71%

Dew Point: 52 °F

Location of BangorLocation

Past Weather in Bangor — Graph

°F

Bangor Temperature Yesterday

Maximum temperature yesterday: 60 °F (at 1:00 PM)
Minimum temperature yesterday: 55 °F (at 6:00 AM)
Average temperature yesterday: 58 °F

High & Low Weather Summary for the Past Weeks

 TemperatureHumidityPressure
High86 °F (Jul 19, 6:00 PM)100% (Jul 15, 2:00 PM)30.34 "Hg (Jul 15, 2:00 PM)
Low47 °F (Jul 23, 5:00 AM)48% (Jul 19, 7:00 PM)29.75 "Hg (Jul 20, 5:00 AM)
Average60 °F87%30.09 "Hg
* Reported Jul 12 3:00 PM — Jul 27 3:00 PM, Bangor, Weather by CustomWeather, © 2016

Note: Actual official high and low records may vary slightly from our data, if they occured in-between our weather recording intervals... More about our weather records

Advertising

Bangor Weather History for the Previous 24 Hours

Scroll right to see more
 ConditionsComfort  
Time TempWeatherWind HumidityBarometerVisibility
3:00 PM
Wed, Jul 27
61 °FCool.12 mph71%30.03 "Hg17 mi
2:00 PM59 °FCool.14 mph74%30.03 "Hg25 mi
1:00 PM59 °FCool.9 mph78%30.02 "Hg28 mi
12:00 PM58 °FCool.9 mph79%30.02 "Hg31 mi
11:00 AM59 °FSmoke.7 mph85%30.01 "Hg9 mi
10:00 AM60 °FCool.6 mph79%29.99 "Hg19 mi
9:00 AM60 °FCool.6 mph80%29.97 "Hg28 mi
8:00 AM58 °FSmoke.14 mph87%29.96 "Hg4 mi
7:00 AM59 °FSmoke.8 mph91%29.93 "Hg3 mi
6:00 AM58 °FCool.16 mph96%29.92 "Hg18 mi
5:00 AM59 °FLight rain. Overcast.14 mph96%29.90 "Hg1 mi
4:00 AM59 °FRain. Overcast.15 mph95%29.90 "Hg3 mi
3:00 AM58 °FRain. Overcast.22 mph95%29.90 "Hg4 mi
2:00 AM58 °FRain. Overcast.25 mph98%29.91 "Hg2 mi
1:00 AM59 °FRain. Overcast.29 mph97%29.92 "Hg2 mi
12:00 AM59 °FLight rain. Overcast.30 mph96%29.95 "Hg8 mi
11:00 PM
Tue, Jul 26
59 °FRain. Overcast.24 mph99%29.97 "Hg3 mi
10:00 PM59 °FLight rain. Overcast.25 mph98%29.99 "Hg6 mi
9:00 PM59 °FRain. Cloudy.20 mph98%30.01 "Hg4 mi
8:00 PM59 °FDrizzle. Cloudy.20 mph96%30.03 "Hg9 mi
7:00 PM58 °FLight rain. Cloudy.24 mph92%30.04 "Hg6 mi
6:00 PM59 °FCool.22 mph94%30.05 "Hg12 mi
5:00 PM59 °FCool.17 mph94%30.07 "Hg13 mi
4:00 PM58 °FDrizzle. Cloudy.18 mph95%30.09 "Hg7 mi
Weather by CustomWeather, © 2016

See weather overviewHow to use our weather pages